sat.trackr.live / text

‹ back to catalog

STARLINK-4474

NORAD 53547 · 2022-101W

PAYLOAD ACTIVE UNKNOWN

§ Identity

Operator
Country
US
Launch date
2022-08-19
Launch site
AFETR
Launch vehicle
Mass (kg)
RCS (m²)

Purposes: comms

External: N2YO · Heavens-Above · Gunter

§ Orbital elements

Epoch: 2026-09-19T13:05:00.889152Z

Period
93.85 min
Inclination
53.1593°
Eccentricity
0.0001385
Mean motion
15.34399832 rev/d
Perigee alt
461.8 km
Apogee alt
463.7 km
Semi-major
6,840.8 km
B*
8.3774e-5
RAAN
258.1462°
Arg perigee
82.6284°
Mean anomaly
277.4876°
Rev number
22,645

§ Raw data

STARLINK-44741 53547U 22101W   26262.54514918  .00002455  00000+0  83774-4 0  99932 53547  53.1593 258.1462 0001385  82.6284 277.4876 15.34399832226454

JSON: /api/v1/satellites/53547 · /tle

For live sub-satellite position, see the globe view (requires WebGL).

§ Visibility from observer

Set your observer location to see the next 7 days of passes ≥ 10°. The values pass through the URL so the page stays shareable.

No JS? Fill the form by hand. The geolocation button needs JavaScript.